Time,TemperatureF,DewpointF,PressureIn,WindDirection,WindDirectionDegrees,WindSpeedMPH,WindSpeedGustMPH,Humidity,HourlyPrecipIn,Conditions,Clouds,dailyrainin,SoftwareType,DateUTC
2013-05-12 00:00:00,53.0,-99.9,-100.00,East,98,1.0,6.0,-999,-99.99,,,-99.99,,2013-05-12 06:00:00,
2013-05-12 00:52:00,53.0,-99.9,-100.00,East,98,1.0,6.0,-999,-99.99,,,-99.99,,2013-05-12 06:52:00,
2013-05-12 01:00:00,53.0,-99.9,-100.00,SSE,167,5.0,5.0,-999,-99.99,,,-99.99,,2013-05-12 07:00:00,
2013-05-12 01:52:00,53.0,-99.9,-100.00,SSE,167,5.0,5.0,-999,-99.99,,,-99.99,,2013-05-12 07:52:00,
2013-05-12 02:00:00,50.0,-99.9,-100.00,ESE,121,1.0,4.0,-999,-99.99,,,-99.99,,2013-05-12 08:00:00,
2013-05-12 02:53:00,50.0,-99.9,-100.00,ESE,121,1.0,4.0,-999,-99.99,,,-99.99,,2013-05-12 08:53:00,
2013-05-12 03:00:00,46.0,-99.9,-100.00,East,88,3.0,6.0,-999,-99.99,,,-99.99,,2013-05-12 09:00:00,
2013-05-12 03:53:00,46.0,-99.9,-100.00,East,88,3.0,6.0,-999,-99.99,,,-99.99,,2013-05-12 09:53:00,
2013-05-12 04:00:00,46.0,-99.9,-100.00,ENE,57,3.0,5.0,-999,-99.99,,,-99.99,,2013-05-12 10:00:00,
2013-05-12 04:52:00,46.0,-99.9,-100.00,ENE,57,3.0,5.0,-999,-99.99,,,-99.99,,2013-05-12 10:52:00,
2013-05-12 05:00:00,44.0,-99.9,-100.00,East,79,3.0,5.0,-999,-99.99,,,-99.99,,2013-05-12 11:00:00,
2013-05-12 05:52:00,44.0,-99.9,-100.00,East,79,3.0,5.0,-999,-99.99,,,-99.99,,2013-05-12 11:52:00,
2013-05-12 06:00:00,44.0,-99.9,-100.00,NE,51,0.0,2.0,-999,-99.99,,,-99.99,,2013-05-12 12:00:00,
2013-05-12 06:52:00,44.0,-99.9,-100.00,NE,51,0.0,2.0,-999,-99.99,,,-99.99,,2013-05-12 12:52:00,
2013-05-12 07:00:00,48.0,-99.9,-100.00,SE,133,7.0,8.0,-999,-99.99,,,-99.99,,2013-05-12 13:00:00,
2013-05-12 07:52:00,48.0,-99.9,-100.00,SE,133,7.0,8.0,-999,-99.99,,,-99.99,,2013-05-12 13:52:00,
2013-05-12 08:00:00,53.0,-99.9,-100.00,East,90,6.0,7.0,-999,-99.99,,,-99.99,,2013-05-12 14:00:00,
2013-05-12 08:52:00,53.0,-99.9,-100.00,East,90,6.0,7.0,-999,-99.99,,,-99.99,,2013-05-12 14:52:00,
2013-05-12 09:00:00,59.0,-99.9,-100.00,ESE,111,4.0,6.0,-999,-99.99,,,-99.99,,2013-05-12 15:00:00,
2013-05-12 09:53:00,59.0,-99.9,-100.00,ESE,111,4.0,6.0,-999,-99.99,,,-99.99,,2013-05-12 15:53:00,
2013-05-12 10:00:00,64.0,-99.9,-100.00,West,274,0.0,5.0,-999,-99.99,,,-99.99,,2013-05-12 16:00:00,
2013-05-12 10:53:00,64.0,-99.9,-100.00,West,274,0.0,5.0,-999,-99.99,,,-99.99,,2013-05-12 16:53:00,
2013-05-12 11:00:00,68.0,-99.9,-100.00,ENE,63,5.0,7.0,-999,-99.99,,,-99.99,,2013-05-12 17:00:00,
2013-05-12 11:53:00,68.0,-99.9,-100.00,ENE,63,5.0,7.0,-999,-99.99,,,-99.99,,2013-05-12 17:53:00,
2013-05-12 12:00:00,71.0,-99.9,-100.00,NW,316,1.0,8.0,-999,-99.99,,,-99.99,,2013-05-12 18:00:00,
2013-05-12 12:52:00,71.0,-99.9,-100.00,NW,316,1.0,8.0,-999,-99.99,,,-99.99,,2013-05-12 18:52:00,
2013-05-12 13:00:00,75.0,-99.9,-100.00,NE,37,7.0,12.0,-999,-99.99,,,-99.99,,2013-05-12 19:00:00,
2013-05-12 13:52:00,75.0,-99.9,-100.00,NE,37,7.0,12.0,-999,-99.99,,,-99.99,,2013-05-12 19:52:00,
2013-05-12 14:00:00,77.0,-99.9,-100.00,NE,40,13.0,16.0,-999,-99.99,,,-99.99,,2013-05-12 20:00:00,
2013-05-12 14:52:00,77.0,-99.9,-100.00,NE,40,13.0,16.0,-999,-99.99,,,-99.99,,2013-05-12 20:52:00,
2013-05-12 15:00:00,77.0,-99.9,-100.00,ENE,67,7.0,12.0,-999,-99.99,,,-99.99,,2013-05-12 21:00:00,
2013-05-12 15:53:00,77.0,-99.9,-100.00,ENE,67,7.0,12.0,-999,-99.99,,,-99.99,,2013-05-12 21:53:00,
2013-05-12 16:00:00,78.0,-99.9,-100.00,East,90,4.0,9.0,-999,-99.99,,,-99.99,,2013-05-12 22:00:00,
2013-05-12 16:52:00,78.0,-99.9,-100.00,East,90,4.0,9.0,-999,-99.99,,,-99.99,,2013-05-12 22:52:00,
2013-05-12 17:00:00,78.0,-99.9,-100.00,East,85,10.0,11.0,-999,-99.99,,,-99.99,,2013-05-12 23:00:00,
2013-05-12 17:52:00,78.0,-99.9,-100.00,East,85,10.0,11.0,-999,-99.99,,,-99.99,,2013-05-12 23:52:00,
2013-05-12 18:00:00,77.0,-99.9,-100.00,SE,136,7.0,9.0,-999,-99.99,,,-99.99,,2013-05-13 00:00:00,
2013-05-12 18:52:00,77.0,-99.9,-100.00,SE,136,7.0,9.0,-999,-99.99,,,-99.99,,2013-05-13 00:52:00,
2013-05-12 19:00:00,75.0,-99.9,-100.00,SSE,152,4.0,6.0,-999,-99.99,,,-99.99,,2013-05-13 01:00:00,
2013-05-12 19:52:00,75.0,-99.9,-100.00,SSE,152,4.0,6.0,-999,-99.99,,,-99.99,,2013-05-13 01:52:00,
2013-05-12 20:00:00,71.0,-99.9,-100.00,SSE,166,4.0,5.0,-999,-99.99,,,-99.99,,2013-05-13 02:00:00,
2013-05-12 20:52:00,71.0,-99.9,-100.00,SSE,166,4.0,5.0,-999,-99.99,,,-99.99,,2013-05-13 02:52:00,
2013-05-12 21:00:00,68.0,-99.9,-100.00,East,79,5.0,8.0,-999,-99.99,,,-99.99,,2013-05-13 03:00:00,
2013-05-12 21:53:00,68.0,-99.9,-100.00,East,79,5.0,8.0,-999,-99.99,,,-99.99,,2013-05-13 03:53:00,
2013-05-12 22:00:00,66.0,-99.9,-100.00,SE,143,4.0,6.0,-999,-99.99,,,-99.99,,2013-05-13 04:00:00,
2013-05-12 22:53:00,66.0,-99.9,-100.00,SE,143,4.0,6.0,-999,-99.99,,,-99.99,,2013-05-13 04:53:00,
2013-05-12 23:00:00,62.0,-99.9,-100.00,SE,139,7.0,12.0,-999,-99.99,,,-99.99,,2013-05-13 05:00:00,
2013-05-12 23:52:00,62.0,-99.9,-100.00,SE,139,7.0,12.0,-999,-99.99,,,-99.99,,2013-05-13 05:52:00,